Change the Weather History Date:

Tuesday, October 23, 2012

  Actual Average Record
Temperature  
Mean Temperature 52 °F 45 °F  
Max Temperature 60 °F 56 °F 83 °F (1899)
Min Temperature 43 °F 34 °F 13 °F (1895)
Degree Days  
Heating Degree Days 13 20  
Month to date heating degree days 369 359  
Since 1 July heating degree days 532 563  
Cooling Degree Days 0 0  
Month to date cooling degree days 0 0  
Year to date cooling degree days 1182 685  
Growing Degree Days 3 (Base 50)    
Moisture  
Dew Point 53 °F    
Average Humidity 89    
Maximum Humidity 100    
Minimum Humidity 78    
Precipitation  
Precipitation T in 0.05 in 0.97 in (1995)
Month to date precipitation 0.64 1.76  
Year to date precipitation 15.46 23.92  
Snow  
Snow 0.00 in 0.00 in 2.00 in (1906)
Month to date snowfall 0.0 0.6  
Since 1 July snowfall 0.0 0.6  
Since 1 September snowfall 0.0 0.6  
Snow Depth 0.00 in    
Sea Level Pressure  
Sea Level Pressure 29.72 in    
Wind  
Wind Speed 4 mph (South)    
Max Wind Speed 13 mph    
Max Gust Speed 15 mph    
Visibility 5 miles    
Events Fog    
T = Trace of Precipitation, MM = Missing Value Source: NWS Daily Summary

Daily Weather History Graph

Daily Weather History Graph

Search for Another Location

Airport or City:

Trip Planner

Search our weather history database for the weather conditions in past years. The results will help you decide how hot, cold, wet, or windy it might be!

Date:

Astronomy

Oct. 23, 2012 Rise Set
Actual Time 7:51 AM CDT 6:30 PM CDT
Civil Twilight 7:22 AM CDT 6:59 PM CDT
Nautical Twilight 6:48 AM CDT 7:32 PM CDT
Astronomical Twilight 6:15 AM CDT 8:05 PM CDT
Moon 3:23 PM CDT (10/23) 1:34 AM CDT (10/23)
Length of Visible Light 11h 36m
Length of Day
10h 38m
Waxing Gibbous, 67% of the Moon is Illuminated
Oct 23
Waxing Gibbous
Oct 29
Full
Nov 6
Last Quarter
Nov 13
New
Nov 20
First Quarter

Hourly Weather History & Observations

Time (CDT) Temp. Dew Point Humidity Pressure Visibility Wind Dir Wind Speed Gust Speed Precip Events Conditions
12:31 AM 55.4 °F 50.0 °F 82% 29.76 in 10.0 mi NE 5.8 mph - 0.00 in   Overcast
12:56 AM 55.0 °F 50.0 °F 83% 29.77 in 10.0 mi ENE 3.5 mph - 0.00 in   Overcast
1:56 AM 55.9 °F 53.1 °F 90% 29.74 in 5.0 mi East 6.9 mph - N/A   Overcast
2:46 AM 55.4 °F 53.6 °F 94% 29.73 in 3.0 mi ENE 5.8 mph - N/A   Overcast
2:56 AM 55.9 °F 54.0 °F 93% 29.72 in 2.5 mi ENE 5.8 mph - N/A   Overcast
3:25 AM 55.4 °F 55.4 °F 100% 29.71 in 1.8 mi East 4.6 mph - N/A   Overcast
3:32 AM 55.4 °F 55.4 °F 100% 29.71 in 0.8 mi ENE 4.6 mph - N/A   Overcast
3:48 AM 55.4 °F 55.4 °F 100% 29.71 in 0.2 mi ENE 3.5 mph - N/A Fog Fog
3:56 AM 55.0 °F 55.0 °F 100% 29.72 in 0.2 mi Calm Calm - N/A Fog Fog
4:46 AM 55.4 °F 55.4 °F 100% 29.72 in 0.2 mi Calm Calm - N/A Fog Fog
4:56 AM 55.4 °F 55.4 °F 100% 29.71 in 0.2 mi Calm Calm - N/A Fog Fog
5:56 AM 55.0 °F 55.0 °F 100% 29.71 in 0.2 mi Calm Calm - 0.00 in Fog Light Drizzle
6:56 AM 55.0 °F 55.0 °F 100% 29.72 in 0.2 mi Calm Calm - 0.00 in Fog Fog
8:14 AM 55.4 °F 55.4 °F 100% 29.69 in 0.2 mi SE 3.5 mph - N/A Fog Fog
8:48 AM 55.4 °F 55.4 °F 100% 29.70 in 0.5 mi SSW 6.9 mph - N/A Fog Fog
9:06 AM 55.4 °F 55.4 °F 100% 29.70 in 2.0 mi SSW 8.1 mph - N/A   Overcast
9:28 AM 53.6 °F 53.6 °F 100% 29.71 in 4.0 mi SSW 9.2 mph - N/A   Overcast
9:56 AM 55.4 °F 53.6 °F 94% 29.72 in 5.0 mi SSW 6.9 mph - N/A   Overcast
10:07 AM 55.4 °F 51.8 °F 88% 29.72 in 5.0 mi SW 8.1 mph - N/A   Overcast
10:56 AM 57.0 °F 52.0 °F 83% 29.72 in 6.0 mi SSW 8.1 mph - N/A   Overcast
11:46 AM 57.2 °F 51.8 °F 82% 29.71 in 6.0 mi SSW 6.9 mph - N/A   Overcast
11:56 AM 57.0 °F 52.0 °F 83% 29.72 in 6.0 mi South 8.1 mph - N/A   Overcast
12:56 PM 57.9 °F 52.0 °F 81% 29.70 in 5.0 mi SSW 4.6 mph - N/A   Overcast
1:56 PM 57.0 °F 53.1 °F 87% 29.70 in 5.0 mi SSW 9.2 mph - N/A   Overcast
2:05 PM 57.2 °F 53.6 °F 88% 29.69 in 4.0 mi SW 8.1 mph - N/A   Overcast
2:56 PM 57.9 °F 54.0 °F 87% 29.69 in 7.0 mi SSW 9.2 mph - 0.00 in   Overcast
3:56 PM 59.0 °F 53.1 °F 81% 29.67 in 10.0 mi South 6.9 mph - N/A   Overcast
4:56 PM 59.0 °F 53.1 °F 81% 29.70 in 10.0 mi SW 6.9 mph - N/A   Overcast
5:20 PM 60.8 °F 53.6 °F 77% 29.69 in 10.0 mi South 5.8 mph - N/A   Overcast
5:56 PM 60.1 °F 53.1 °F 78% 29.70 in 10.0 mi SW 4.6 mph - N/A   Overcast
6:56 PM 57.9 °F 52.0 °F 81% 29.72 in 10.0 mi Calm Calm - N/A   Overcast
7:56 PM 57.0 °F 52.0 °F 83% 29.75 in 10.0 mi West 3.5 mph - N/A   Overcast
8:56 PM 55.9 °F 52.0 °F 87% 29.77 in 10.0 mi Calm Calm - N/A   Overcast
9:26 PM 53.6 °F 51.8 °F 94% 29.77 in 10.0 mi NNW 4.6 mph - N/A   Partly Cloudy
9:56 PM 51.1 °F 48.9 °F 92% 29.78 in 10.0 mi Calm Calm - N/A   Partly Cloudy
10:56 PM 46.9 °F 46.0 °F 97% 29.81 in 7.0 mi Calm Calm - N/A   Clear
11:56 PM 44.1 °F 44.1 °F 100% 29.82 in 7.0 mi Calm Calm - N/A   Clear